Back to catalog

FENGYUN 1C DEB

AliveSSO
NORAD 32353·DEBRIS·🇨🇳 China

Launched May 10, 1999 from Taiyuan Satellite Launch Center

Loading…

Next Passes (next 24 hours)

TLE

AgingSource: Space-Track

Epoch: Sep 4, 2026, 18:40 UTC

1 32353U 99025CYW 26247.77787997  .00002432  00000-0  14209-2 0  9992
2 32353  98.9357  65.0332 0122778 175.0760 185.1647 14.05603854669291

Track FENGYUN 1C DEB in real time with AllMySat

Download on the App Store